Flag for Papua New Guinea Weather past 2 weeks in Port Moresby, Papua New Guinea

Now
75 °F

Clear.


Feels Like: 75 °F
Forecast: 74 / 86 °F
Wind: 2 mph from North

Location: Moresby

Current Time: Jul 27, 2014 at 3:49:13 AM

Latest Report: Jul 27, 2014 at 1:00 AM


Visibility: 10 mi

Pressure: 29.95 "Hg

Humidity: 83%

Dew point: 70 °F

Location of Port MoresbyLocation

Historic Weather in Port Moresby — Graph

°F

Port Moresby temperature yesterday

Maximum temperature yesterday: 86 °F (at 12:00 PM)
Minimum temperature yesterday: 73 °F (at 2:00 AM)
Average temperature yesterday: 78 °F

Past Weeks' High & Low Weather Summary

 TemperatureHumidityPressure
High90 °F (Jul 15, 1:00 PM)94% (Jul 14, 5:00 AM)29.98 "Hg (Jul 14, 5:00 AM)
Low70 °F (Jul 19, 6:00 AM)32% (Jul 23, 3:00 PM)29.71 "Hg (Jul 15, 4:00 PM)
Average78 °F72%29.86 "Hg
* Reported Jul 12 8:00 AM — Jul 27 1:00 AM, Port Moresby, Weather by CustomWeather, © 2014

Note: Actual official high and low records may vary slightly from our data, if they occured in-between our weather recording intervals... More about our weather records

Advertising

Port Moresby weather history for previous 24 hours

 ConditionsComfort  
Time TempWeatherWind HumidityBarometerVisibility
1:00 AM
Jul 27
75 °FClear.2 mph83%29.95 "Hg10 mi
12:00 AM75 °FClear.2 mph83%29.95 "Hg10 mi
11:00 PM
Jul 26
75 °FClear.No wind83%29.95 "Hg10 mi
9:00 PM77 °FPassing clouds.9 mph79%29.95 "HgN/A
8:00 PM77 °FPassing clouds.9 mph79%29.92 "HgN/A
7:00 PM77 °FPassing clouds.9 mph79%29.92 "HgN/A
6:00 PM77 °FPartly sunny.12 mph74%29.89 "HgN/A
5:00 PM79 °FPartly sunny.12 mph74%29.89 "HgN/A
2:00 PM82 °FScattered clouds.9 mph66%29.89 "HgN/A
1:00 PM86 °FPassing clouds.8 mph52%29.92 "HgN/A
12:00 PM86 °FPassing clouds.8 mph52%29.92 "HgN/A
11:00 AM84 °FPassing clouds.5 mph51%29.95 "HgN/A
10:00 AM82 °FScattered clouds.6 mph58%29.98 "HgN/A
9:00 AM79 °FScattered clouds.6 mph70%29.98 "HgN/A
8:00 AM77 °FScattered clouds.3 mph79%29.95 "HgN/A
7:00 AM73 °FBroken clouds.No wind83%29.92 "HgN/A
6:00 AM73 °FPartly cloudy.No wind83%29.92 "HgN/A
5:00 AM73 °FPassing clouds.No wind83%29.89 "HgN/A
4:00 AM73 °FPartly cloudy.No wind83%29.89 "HgN/A
Weather by CustomWeather, © 2014

See weather overviewHow to use our weather pages